Cumberland, WV

10:33 PM EDT on April 28, 2017 (GMT -0400)
Greater Cumberland Regional

Weather History for KCBE - June, 2013

Change the Weather History Date:

Thursday, June 13, 2013

  Actual Average (KMRB) Record (KMRB)
Temperature  
Mean Temperature 71 °F -  
Max Temperature 78 °F 80 °F 100 °F (1933)
Min Temperature 64 °F 58 °F 45 °F (1952)
Cooling Degree Days 6    
Growing Degree Days 21 (Base 50)    
Moisture  
Dew Point 64 °F    
Average Humidity 82    
Maximum Humidity 100    
Minimum Humidity 57    
Precipitation  
Precipitation 0.00 in - - ()
Sea Level Pressure  
Sea Level Pressure 29.69 in    
Wind  
Wind Speed 4 mph (SSW)    
Max Wind Speed 15 mph    
Max Gust Speed 25 mph    
Visibility 9 miles    
Events      
Averages and records for this station are not official NWS values.
T = Trace of Precipitation, MM = Missing Value Source: NWS Daily Summary

Daily Weather History Graph

Daily Weather History Graph

Search for Another Location

Airport or City:

Trip Planner

Search our weather history database for the weather conditions in past years. The results will help you decide how hot, cold, wet, or windy it might be!

Date:

Astronomy

Jun. 13, 2013 Rise Set
Actual Time 5:46 AM EDT 8:43 PM EDT
Civil Twilight 5:14 AM EDT 9:16 PM EDT
Nautical Twilight 4:33 AM EDT 9:57 PM EDT
Astronomical Twilight 3:45 AM EDT 10:44 PM EDT
Moon 10:20 AM EDT (6/13) 11:50 PM EDT (6/13)
Length of Visible Light 16h 01m
Length of Day
14h 56m
Waxing Crescent, 21% of the Moon is Illuminated
Jun 13
Waxing Crescent
Jun 16
First Quarter
Jun 23
Full
Jun 30
Last Quarter
Jul 8
New

Hourly Weather History & Observations

Time (EDT) Temp. Dew Point Humidity Pressure Visibility Wind Dir Wind Speed Gust Speed Precip Events Conditions
12:01 AM 71.6 °F 68.0 °F 88% 29.84 in 10.0 mi Calm Calm - N/A   Clear
12:21 AM 71.6 °F 68.0 °F 88% 29.83 in 10.0 mi Calm Calm - N/A   Clear
12:41 AM 69.8 °F 66.2 °F 88% 29.83 in 10.0 mi Calm Calm - N/A   Clear
1:01 AM 69.8 °F 68.0 °F 94% 29.83 in 10.0 mi Calm Calm - N/A   Clear
1:21 AM 69.8 °F 68.0 °F 94% 29.83 in 10.0 mi Calm Calm - N/A   Clear
1:41 AM 69.8 °F 68.0 °F 94% 29.82 in 7.0 mi Calm Calm - N/A   Clear
2:01 AM 69.8 °F 68.0 °F 94% 29.83 in 5.0 mi South 5.8 mph - N/A   Mostly Cloudy
2:21 AM 69.8 °F 68.0 °F 94% 29.80 in 5.0 mi South 4.6 mph - N/A   Overcast
2:41 AM 69.8 °F 69.8 °F 100% 29.79 in 7.0 mi SSW 11.5 mph - N/A   Scattered Clouds
3:01 AM 71.6 °F 69.8 °F 94% 29.78 in 7.0 mi SSE 6.9 mph - N/A   Mostly Cloudy
3:21 AM 71.6 °F 68.0 °F 88% 29.78 in 7.0 mi Calm Calm - N/A   Scattered Clouds
3:41 AM 69.8 °F 68.0 °F 94% 29.77 in 7.0 mi SSE 5.8 mph - N/A   Clear
4:01 AM 69.8 °F 68.0 °F 94% 29.76 in 7.0 mi ESE 4.6 mph - N/A   Clear
4:21 AM 69.8 °F 64.4 °F 83% 29.74 in 10.0 mi SE 6.9 mph - N/A   Clear
4:41 AM 68.0 °F 62.6 °F 83% 29.73 in 10.0 mi SE 3.5 mph - N/A   Clear
5:01 AM 68.0 °F 62.6 °F 83% 29.72 in 10.0 mi SE 3.5 mph - N/A   Clear
5:21 AM 66.2 °F 62.6 °F 88% 29.72 in 10.0 mi Calm Calm - N/A   Clear
5:41 AM 66.2 °F 62.6 °F 88% 29.71 in 10.0 mi Calm Calm - N/A   Mostly Cloudy
6:01 AM 64.4 °F 62.6 °F 94% 29.70 in 5.0 mi Calm Calm - N/A   Mostly Cloudy
6:21 AM 64.4 °F 62.6 °F 94% 29.73 in 7.0 mi NW 9.2 mph - N/A   Mostly Cloudy
6:41 AM 64.4 °F 62.6 °F 94% 29.75 in 4.0 mi SE 5.8 mph - N/A   Overcast
7:01 AM 64.4 °F 62.6 °F 94% 29.74 in 5.0 mi SSE 5.8 mph - N/A   Mostly Cloudy
7:21 AM 64.4 °F 62.6 °F 94% 29.73 in 7.0 mi Calm Calm - N/A   Scattered Clouds
7:41 AM 64.4 °F 64.4 °F 100% 29.73 in 7.0 mi South 6.9 mph - N/A   Clear
8:02 AM 66.2 °F 64.4 °F 94% 29.72 in 10.0 mi SSE 8.1 mph - N/A   Mostly Cloudy
8:22 AM 66.2 °F 64.4 °F 94% 29.67 in 7.0 mi SSE 12.7 mph - N/A   Overcast
8:42 AM 66.2 °F 64.4 °F 94% 29.65 in 10.0 mi South 10.4 mph - N/A   Overcast
9:02 AM 66.2 °F 64.4 °F 94% 29.65 in 10.0 mi South 9.2 mph 17.3 mph N/A   Scattered Clouds
9:22 AM 68.0 °F 64.4 °F 88% 29.66 in 10.0 mi South 11.5 mph 16.1 mph N/A   Scattered Clouds
9:42 AM 68.0 °F 62.6 °F 83% 29.64 in 10.0 mi South 10.4 mph - N/A   Scattered Clouds
10:02 AM 68.0 °F 62.6 °F 83% 29.63 in 10.0 mi South 9.2 mph - N/A   Clear
10:22 AM 68.0 °F 62.6 °F 83% 29.65 in 10.0 mi SSW 3.5 mph - N/A   Clear
10:42 AM 69.8 °F 64.4 °F 83% 29.65 in 10.0 mi SSW 4.6 mph - N/A   Clear
11:02 AM 71.6 °F 62.6 °F 73% 29.65 in 10.0 mi SSE 5.8 mph - N/A   Clear
11:22 AM 69.8 °F 62.6 °F 78% 29.64 in 7.0 mi SW 8.1 mph 16.1 mph N/A   Scattered Clouds
11:42 AM 69.8 °F 64.4 °F 83% 29.64 in 10.0 mi South 8.1 mph - N/A   Scattered Clouds
12:02 PM 69.8 °F 64.4 °F 83% 29.62 in 10.0 mi SSE 3.5 mph 16.1 mph N/A   Scattered Clouds
12:22 PM 73.4 °F 64.4 °F 73% 29.61 in 10.0 mi West 4.6 mph - N/A   Scattered Clouds
12:42 PM 77.0 °F 62.6 °F 61% 29.60 in 10.0 mi WNW 11.5 mph 25.3 mph N/A   Clear
1:02 PM 78.8 °F 62.6 °F 57% 29.61 in 10.0 mi West 11.5 mph 17.3 mph N/A   Scattered Clouds
1:22 PM 77.0 °F 60.8 °F 57% 29.61 in 10.0 mi West 8.1 mph 19.6 mph N/A   Mostly Cloudy
1:42 PM 77.0 °F 62.6 °F 61% 29.62 in 10.0 mi SW 8.1 mph - N/A   Mostly Cloudy
2:02 PM 77.0 °F 60.8 °F 57% 29.61 in 10.0 mi WSW 8.1 mph - N/A   Scattered Clouds
2:22 PM 73.4 °F 60.8 °F 65% 29.62 in 10.0 mi West 6.9 mph 16.1 mph N/A   Scattered Clouds
2:42 PM 71.6 °F 62.6 °F 73% 29.62 in 7.0 mi West 4.6 mph - N/A   Overcast
3:02 PM 71.6 °F 62.6 °F 73% 29.60 in 7.0 mi West 4.6 mph - N/A   Overcast
3:22 PM 71.6 °F 64.4 °F 78% 29.60 in 10.0 mi SSW 5.8 mph - N/A   Scattered Clouds
3:42 PM 71.6 °F 64.4 °F 78% 29.60 in 10.0 mi SW 4.6 mph - N/A   Scattered Clouds
4:02 PM 71.6 °F 64.4 °F 78% 29.59 in 10.0 mi WSW 5.8 mph - N/A   Scattered Clouds
4:22 PM 71.6 °F 62.6 °F 73% 29.60 in 10.0 mi WNW 9.2 mph - N/A   Mostly Cloudy
4:43 PM 71.6 °F 60.8 °F 69% 29.61 in 10.0 mi NNW 15.0 mph 23.0 mph N/A   Mostly Cloudy
5:03 PM 71.6 °F 60.8 °F 69% 29.62 in 10.0 mi NNW 10.4 mph 24.2 mph N/A   Overcast
5:23 PM 69.8 °F 59.0 °F 68% 29.64 in 10.0 mi NW 11.5 mph 24.2 mph N/A   Overcast
5:43 PM 69.8 °F 59.0 °F 68% 29.64 in 10.0 mi NW 10.4 mph 25.3 mph N/A   Overcast
6:03 PM 69.8 °F 57.2 °F 64% 29.65 in 10.0 mi NW 10.4 mph 24.2 mph N/A   Overcast